Weather History for YSTW - August, 2013

Change the Weather History Date:

Wednesday, August 14, 2013

  Actual Average Record
Temperature  
Mean Temperature 50 °F -  
Max Temperature 66 °F - - ()
Min Temperature 33 °F - - ()
Degree Days  
Heating Degree Days 16    
Moisture  
Dew Point 29 °F    
Average Humidity 53    
Maximum Humidity 81    
Minimum Humidity 19    
Precipitation  
Precipitation 0.00 in - - ()
Sea Level Pressure  
Sea Level Pressure 29.98 in    
Wind  
Wind Speed 4 mph ()    
Max Wind Speed 12 mph    
Max Gust Speed -    
Visibility 6.2 miles    
Events      
T = Trace of Precipitation, MM = Missing Value Source: Averaged Metar Reports

Daily Weather History Graph

Daily Weather History Graph

Search for Another Location

Airport or City:

Trip Planner

Search our weather history database for the weather conditions in past years. The results will help you decide how hot, cold, wet, or windy it might be!

Date:

Astronomy

Aug. 14, 2013 Rise Set
Actual Time 6:32 AM AEST 5:30 PM AEST
Civil Twilight 6:08 AM AEST 5:55 PM AEST
Nautical Twilight 5:39 AM AEST 6:23 PM AEST
Astronomical Twilight 5:11 AM AEST 6:51 PM AEST
Moon 10:41 AM AEST (8/14) No Moon Set
Length of Visible Light 11h 46m
Length of Day
10h 57m
Waxing Crescent, 46% of the Moon is Illuminated
Aug 14
Waxing Crescent
Aug 14
First Quarter
Aug 21
Full
Aug 28
Last Quarter
Sep 5
New

Hourly Weather History & Observations

Time (AEST) Temp. Windchill Dew Point Humidity Pressure Visibility Wind Dir Wind Speed Gust Speed Precip Events Conditions
12:00 AM 41.0 °F 35.8 °F 30.2 °F 65% 30.04 in 6.2 mi SE 8.1 mph - N/A   Unknown
12:30 AM 37.4 °F 34.9 °F 28.4 °F 70% 30.04 in 6.2 mi SSE 3.5 mph - N/A   Unknown
1:00 AM 35.6 °F 30.7 °F 28.4 °F 75% 30.04 in 6.2 mi SSW 5.8 mph - N/A   Unknown
1:30 AM 37.4 °F 33.8 °F 30.2 °F 75% 30.04 in 6.2 mi South 4.6 mph - N/A   Unknown
2:00 AM 39.2 °F 35.0 °F 32.0 °F 75% 30.04 in 6.2 mi East 5.8 mph - N/A   Unknown
2:30 AM 39.2 °F 35.0 °F 30.2 °F 70% 30.04 in 6.2 mi SE 5.8 mph - N/A   Unknown
3:00 AM 37.4 °F 32.8 °F 28.4 °F 70% 30.01 in 6.2 mi SE 5.8 mph - N/A   Unknown
3:30 AM 33.8 °F 28.6 °F 28.4 °F 81% 30.01 in 6.2 mi South 5.8 mph - N/A   Unknown
4:00 AM 37.4 °F 34.9 °F 30.2 °F 75% 30.01 in 6.2 mi SSE 3.5 mph - N/A   Unknown
4:30 AM 35.6 °F 32.8 °F 30.2 °F 81% 30.01 in 6.2 mi South 3.5 mph - N/A   Unknown
5:00 AM 37.4 °F 33.8 °F 30.2 °F 75% 30.01 in 6.2 mi ESE 4.6 mph - N/A   Unknown
5:30 AM 39.2 °F 35.0 °F 30.2 °F 70% 30.01 in 6.2 mi SE 5.8 mph - N/A   Unknown
6:00 AM 37.4 °F 34.9 °F 30.2 °F 75% 30.04 in 6.2 mi South 3.5 mph - N/A   Unknown
6:30 AM 37.4 °F - 30.2 °F 75% 30.04 in 6.2 mi SE 1.2 mph - N/A   Unknown
7:00 AM 37.4 °F - 32.0 °F 81% 30.04 in 6.2 mi North 1.2 mph - N/A   Unknown
7:30 AM 39.2 °F - 33.8 °F 81% 30.04 in 6.2 mi WSW 1.2 mph - N/A   Unknown
8:00 AM 42.8 °F - 35.6 °F 76% 30.04 in 6.2 mi Calm Calm - N/A   Unknown
8:30 AM 44.6 °F - 33.8 °F 66% 30.04 in 6.2 mi Calm Calm - N/A   Unknown
9:00 AM 46.4 °F - 33.8 °F 62% 30.04 in 6.2 mi ENE 1.2 mph - N/A   Unknown
9:30 AM 48.2 °F - 33.8 °F 58% 30.04 in 6.2 mi SSW 2.3 mph - N/A   Unknown
10:00 AM 51.8 °F - 33.8 °F 50% 30.04 in 6.2 mi ESE 2.3 mph - N/A   Unknown
10:30 AM 55.4 °F - 33.8 °F 44% 30.01 in 6.2 mi SE 2.3 mph - N/A   Unknown
11:00 AM 59.0 °F - 32.0 °F 36% 30.01 in 6.2 mi South 5.8 mph - N/A   Unknown
11:30 AM 60.8 °F - 32.0 °F 34% 29.98 in 6.2 mi NNW 4.6 mph - N/A   Unknown
12:00 PM 62.6 °F - 32.0 °F 32% 29.98 in 6.2 mi NNW 5.8 mph - N/A   Unknown
12:30 PM 64.4 °F - 32.0 °F 30% 29.95 in 6.2 mi North 8.1 mph - N/A   Unknown
1:00 PM 66.2 °F - 24.8 °F 21% 29.95 in 6.2 mi NW 9.2 mph - N/A   Unknown
1:30 PM 66.2 °F - 26.6 °F 23% 29.92 in 6.2 mi NW 10.4 mph - N/A   Unknown
2:00 PM 66.2 °F - 24.8 °F 21% 29.92 in 6.2 mi WNW 9.2 mph - N/A   Unknown
2:30 PM 66.2 °F - 23.0 °F 19% 29.92 in 6.2 mi NW 11.5 mph - N/A   Unknown
3:00 PM 66.2 °F - 23.0 °F 19% 29.92 in 6.2 mi NW 11.5 mph - N/A   Unknown
3:30 PM 66.2 °F - 26.6 °F 23% 29.92 in 6.2 mi WNW 9.2 mph - N/A   Unknown
4:00 PM 66.2 °F - 23.0 °F 19% 29.89 in 6.2 mi WNW 9.2 mph - N/A   Unknown
4:30 PM 62.6 °F - 23.0 °F 22% 29.92 in 6.2 mi WNW 6.9 mph - N/A   Unknown
5:00 PM 62.6 °F - 28.4 °F 27% 29.92 in 6.2 mi NW 3.5 mph - N/A   Unknown
5:30 PM 59.0 °F - 24.8 °F 27% 29.92 in 6.2 mi Calm Calm - N/A   Unknown
6:00 PM 55.4 °F - 26.6 °F 33% 29.92 in 6.2 mi NW 3.5 mph - N/A   Unknown
6:30 PM 55.4 °F - 26.6 °F 33% 29.92 in 6.2 mi NE 4.6 mph - N/A   Unknown
7:00 PM 51.8 °F - 28.4 °F 41% 29.92 in 6.2 mi North 5.8 mph - N/A   Unknown
7:30 PM 48.2 °F - 28.4 °F 46% 29.92 in 6.2 mi North 1.2 mph - N/A   Unknown
8:00 PM 44.6 °F 42.2 °F 28.4 °F 53% 29.95 in 6.2 mi WSW 4.6 mph - N/A   Unknown
8:30 PM 44.6 °F 43.1 °F 30.2 °F 57% 29.95 in 6.2 mi South 3.5 mph - N/A   Unknown
9:00 PM 42.8 °F 39.3 °F 28.4 °F 57% 29.95 in 6.2 mi ESE 5.8 mph - N/A   Unknown
9:30 PM 37.4 °F 34.9 °F 26.6 °F 65% 29.95 in 6.2 mi ESE 3.5 mph - N/A   Unknown
10:00 PM 39.2 °F - 30.2 °F 70% 29.95 in 6.2 mi Calm Calm - N/A   Unknown
10:30 PM 41.0 °F - 30.2 °F 65% 29.95 in 6.2 mi South 1.2 mph - N/A   Unknown
11:00 PM 35.6 °F 31.7 °F 26.6 °F 70% 29.95 in 6.2 mi East 4.6 mph - N/A   Unknown
11:30 PM 35.6 °F - 28.4 °F 75% 29.95 in 6.2 mi Calm Calm - N/A   Unknown